Voltar ao catálogo

STARLINK-37977

AtivoComunicaçõesSSO
NORAD 69687·PAYLOAD·🇺🇸 United States

Lançado Jun 25, 2026 de Vandenberg Space Force Base

Loading…

Próximas Passagens (próximas 24 horas)

TLE

AtualizadoSource: CelesTrak SupGP

Época: Sep 14, 2026, 23:22 UTC

1 69687C 26145L   26257.97409722  .00088176  00000+0  27378-2 0  2571
2 69687  97.2843 104.7151 0001733  94.5489 358.9225 15.33387293    12

Acompanhe STARLINK-37977 em tempo real com AllMySat

Download on the App Store